Regional Weather Roundup
Issued by NWS Raleigh/Durham, NC

Home | Current Version | Previous Version | Text Only | Print | Product List | Glossary On
Versions: 1 2 3 4 5 6 7 8 9 10 11 12 13 14 15 16 17 18 19 20 21 22 23 24 25 26 27 28 29 30 31 32 33 34 35 36 37 38 39 40 41 42 43 44 45 46 47 48 49 50
545
ASUS42 KRAH 200910
RWRRAH
NORTH CAROLINA WEATHER ROUNDUP
NATIONAL WEATHER SERVICE RALEIGH NC
400 AM EST MON FEB 20 2017

NOTE: "FAIR" INDICATES FEW OR NO CLOUDS BELOW 12,000 FEET WITH NO
SIGNIFICANT WEATHER AND/OR OBSTRUCTIONS TO VISIBILITY.

NCZ001-053-055-056-065-067-201000-
WESTERN NORTH CAROLINA

CITY           SKY/WX    TMP DP  RH WIND       PRES   REMARKS
ASHEVILLE      CLOUDY    36  32  85 CALM      30.18F
JEFFERSON      CLEAR     46  38  74 CALM      30.18S
MORGANTON      CLEAR     34  34 100 NW3       30.20S
HICKORY        CLEAR     45  40  82 NW8       30.14F
RUTHERFORDTON  CLOUDY    42  41  96 NW7       30.15F
MOUNT AIRY     CLEAR     50  43  77 NW5       30.15F
BOONE          CLEAR     44  39  81 W5        30.20S
$$

NCZ021-022-025-041-071-084-088-201000-
CENTRAL NORTH CAROLINA

CITY           SKY/WX    TMP DP  RH WIND       PRES   REMARKS
CHARLOTTE      CLEAR     46  40  79 N3        30.15S
GREENSBORO     CLEAR     43  39  86 CALM      30.13S
WINSTON-SALEM  CLEAR     51  40  65 NW3       30.14S
RALEIGH-DURHAM CLEAR     46  40  79 CALM      30.14R
FORT BRAGG     CLEAR     47  43  84 NW6       30.12S
FAYETTEVILLE   CLEAR     53  43  68 NW6       30.12R
BURLINGTON     CLEAR     47  41  80 CALM      30.14R
LAURINBURG     CLEAR     41  39  93 NW3       30.14R
$$

NCZ011-015-027-028-043-044-047-080-103-201000-
NORTHEASTERN NORTH CAROLINA

CITY           SKY/WX    TMP DP  RH WIND       PRES   REMARKS
ROCKY MT-WILSO CLEAR     48  42  80 VRB3      30.12R
GREENVILLE     CLEAR     46  39  76 CALM      30.12R
WASHINGTON     CLEAR     50  43  77 NW3       30.09R
ELIZABETH CITY CLEAR     49  45  86 N3        30.08R
MANTEO         CLEAR     43  42  98 CALM      30.06R
CAPE HATTERAS  CLEAR     52  47  83 N6        30.04F
$$

NCZ078-087-090-091-093-098-101-201000-
SOUTHEASTERN NORTH CAROLINA

CITY           SKY/WX    TMP DP  RH WIND       PRES   REMARKS
LUMBERTON      CLEAR     45  43  93 CALM      30.13R
GOLDSBORO      CLEAR     51  45  82 CALM      30.10R
KINSTON        CLEAR     52  43  72 NW6       30.11R
KENANSVILLE    NOT AVBL
NEW BERN       CLEAR     46  45  96 CALM      30.09R
CHERRY POINT   CLEAR     46  43  89 W3        30.08R
BEAUFORT       CLEAR     52  48  86 NW7       30.07R
JACKSONVILLE   CLEAR     48  44  86 W3        30.09R
WILMINGTON     CLEAR     48  46  93 W5        30.10R
$$





USA.gov is the U.S. government's official web portal to all federal, state and local government web resources and services.